Time,TemperatureF,DewpointF,PressureIn,WindDirection,WindDirectionDegrees,WindSpeedMPH,WindSpeedGustMPH,Humidity,HourlyPrecipIn,Conditions,Clouds,dailyrainin,SoftwareType,DateUTC
2013-02-26 00:01:00,37.0,14.0,-100.00,East,86,5.0,6.0,39,-99.99,,,-99.99,,2013-02-26 08:01:00,
2013-02-26 00:11:00,37.0,14.0,-100.00,East,85,4.0,5.0,38,-99.99,,,-99.99,,2013-02-26 08:11:00,
2013-02-26 00:21:00,37.0,13.0,-100.00,East,81,4.0,5.0,37,-99.99,,,-99.99,,2013-02-26 08:21:00,
2013-02-26 00:31:00,35.0,14.0,-100.00,East,89,5.0,6.0,41,-99.99,,,-99.99,,2013-02-26 08:31:00,
2013-02-26 00:41:00,35.0,14.0,-100.00,East,89,5.0,6.0,41,-99.99,,,-99.99,,2013-02-26 08:41:00,
2013-02-26 00:52:00,37.0,11.0,-100.00,East,87,6.0,7.0,33,-99.99,,,-99.99,,2013-02-26 08:52:00,
2013-02-26 01:01:00,38.0,9.0,-100.00,East,85,7.0,8.0,29,-99.99,,,-99.99,,2013-02-26 09:01:00,
2013-02-26 01:11:00,38.0,8.0,-100.00,East,85,6.0,7.0,28,-99.99,,,-99.99,,2013-02-26 09:11:00,
2013-02-26 01:21:00,39.0,6.0,-100.00,ENE,76,5.0,6.0,25,-99.99,,,-99.99,,2013-02-26 09:21:00,
2013-02-26 01:31:00,39.0,6.0,-100.00,ENE,78,4.0,5.0,25,-99.99,,,-99.99,,2013-02-26 09:31:00,
2013-02-26 01:43:00,38.0,6.0,-100.00,ENE,76,3.0,4.0,26,-99.99,,,-99.99,,2013-02-26 09:43:00,
2013-02-26 01:51:00,41.0,4.0,-100.00,ENE,70,1.0,2.0,21,-99.99,,,-99.99,,2013-02-26 09:51:00,
2013-02-26 02:01:00,40.0,3.0,-100.00,NNW,342,1.0,2.0,21,-99.99,,,-99.99,,2013-02-26 10:01:00,
2013-02-26 02:11:00,42.0,2.0,-100.00,West,277,2.0,4.0,18,-99.99,,,-99.99,,2013-02-26 10:11:00,
2013-02-26 02:21:00,42.0,2.0,-100.00,West,274,2.0,4.0,18,-99.99,,,-99.99,,2013-02-26 10:21:00,
2013-02-26 02:31:00,41.0,3.0,-100.00,WNW,283,2.0,4.0,20,-99.99,,,-99.99,,2013-02-26 10:31:00,
2013-02-26 02:41:00,41.0,3.0,-100.00,West,280,1.0,3.0,20,-99.99,,,-99.99,,2013-02-26 10:41:00,
2013-02-26 02:51:00,38.0,5.0,-100.00,ESE,105,2.0,4.0,25,-99.99,,,-99.99,,2013-02-26 10:51:00,
2013-02-26 03:01:00,42.0,4.0,-100.00,SW,228,2.0,6.0,20,-99.99,,,-99.99,,2013-02-26 11:01:00,
2013-02-26 03:11:00,44.0,4.0,-100.00,WSW,243,3.0,10.0,19,-99.99,,,-99.99,,2013-02-26 11:11:00,
2013-02-26 03:21:00,45.0,5.0,-100.00,West,273,4.0,9.0,19,-99.99,,,-99.99,,2013-02-26 11:21:00,
2013-02-26 03:31:00,45.0,5.0,-100.00,West,279,5.0,10.0,19,-99.99,,,-99.99,,2013-02-26 11:31:00,
2013-02-26 03:41:00,43.0,6.0,-100.00,West,280,5.0,8.0,21,-99.99,,,-99.99,,2013-02-26 11:41:00,
2013-02-26 03:52:00,43.0,7.0,-100.00,WNW,284,5.0,8.0,22,-99.99,,,-99.99,,2013-02-26 11:52:00,
2013-02-26 04:01:00,43.0,7.0,-100.00,WNW,284,5.0,8.0,22,-99.99,,,-99.99,,2013-02-26 12:01:00,
2013-02-26 04:11:00,43.0,8.0,-100.00,NNW,337,3.0,7.0,23,-99.99,,,-99.99,,2013-02-26 12:11:00,
2013-02-26 04:22:00,41.0,9.0,-100.00,ENE,63,3.0,5.0,26,-99.99,,,-99.99,,2013-02-26 12:22:00,
2013-02-26 04:32:00,39.0,9.0,-100.00,East,83,5.0,7.0,28,-99.99,,,-99.99,,2013-02-26 12:32:00,
2013-02-26 04:42:00,41.0,9.0,-100.00,East,87,5.0,7.0,26,-99.99,,,-99.99,,2013-02-26 12:42:00,
2013-02-26 04:52:00,42.0,8.0,-100.00,ESE,106,3.0,4.0,24,-99.99,,,-99.99,,2013-02-26 12:52:00,
2013-02-26 05:01:00,43.0,8.0,-100.00,ESE,105,2.0,5.0,23,-99.99,,,-99.99,,2013-02-26 13:01:00,
2013-02-26 05:11:00,41.0,8.0,-100.00,ENE,74,3.0,4.0,25,-99.99,,,-99.99,,2013-02-26 13:11:00,
2013-02-26 05:21:00,41.0,7.0,-100.00,ENE,78,1.0,3.0,24,-99.99,,,-99.99,,2013-02-26 13:21:00,
2013-02-26 05:31:00,41.0,7.0,-100.00,ENE,57,2.0,4.0,24,-99.99,,,-99.99,,2013-02-26 13:31:00,
2013-02-26 05:42:00,40.0,6.0,-100.00,ENE,72,3.0,6.0,24,-99.99,,,-99.99,,2013-02-26 13:42:00,
2013-02-26 05:51:00,43.0,1.0,-100.00,ENE,72,2.0,7.0,17,-99.99,,,-99.99,,2013-02-26 13:51:00,
2013-02-26 06:01:00,43.0,1.0,-100.00,ENE,72,2.0,7.0,17,-99.99,,,-99.99,,2013-02-26 14:01:00,
2013-02-26 06:11:00,42.0,0.0,-100.00,ENE,72,2.0,4.0,17,-99.99,,,-99.99,,2013-02-26 14:11:00,
2013-02-26 06:21:00,43.0,-3.0,-100.00,ENE,74,2.0,8.0,14,-99.99,,,-99.99,,2013-02-26 14:21:00,
2013-02-26 06:31:00,42.0,-2.0,-100.00,East,90,5.0,7.0,15,-99.99,,,-99.99,,2013-02-26 14:31:00,
2013-02-26 06:41:00,43.0,-3.0,-100.00,East,87,7.0,11.0,14,-99.99,,,-99.99,,2013-02-26 14:41:00,
2013-02-26 06:52:00,41.0,-2.0,-100.00,East,99,6.0,10.0,16,-99.99,,,-99.99,,2013-02-26 14:52:00,
2013-02-26 07:01:00,41.0,-2.0,-100.00,East,87,8.0,11.0,16,-99.99,,,-99.99,,2013-02-26 15:01:00,
2013-02-26 07:11:00,43.0,-3.0,-100.00,East,81,8.0,11.0,14,-99.99,,,-99.99,,2013-02-26 15:11:00,
2013-02-26 07:21:00,44.0,-2.0,-100.00,East,83,7.0,9.0,14,-99.99,,,-99.99,,2013-02-26 15:21:00,
2013-02-26 07:32:00,44.0,-1.0,-100.00,East,90,6.0,11.0,15,-99.99,,,-99.99,,2013-02-26 15:32:00,
2013-02-26 07:41:00,46.0,0.0,-100.00,ENE,78,6.0,10.0,14,-99.99,,,-99.99,,2013-02-26 15:41:00,
2013-02-26 07:51:00,46.0,1.0,-100.00,East,89,5.0,7.0,15,-99.99,,,-99.99,,2013-02-26 15:51:00,
2013-02-26 08:01:00,48.0,3.0,-100.00,East,88,5.0,10.0,15,-99.99,,,-99.99,,2013-02-26 16:01:00,
2013-02-26 08:11:00,50.0,3.0,-100.00,ENE,70,7.0,12.0,14,-99.99,,,-99.99,,2013-02-26 16:11:00,
2013-02-26 08:22:00,51.0,5.0,-100.00,East,94,4.0,8.0,15,-99.99,,,-99.99,,2013-02-26 16:22:00,
2013-02-26 08:31:00,51.0,4.0,-100.00,ESE,105,5.0,10.0,14,-99.99,,,-99.99,,2013-02-26 16:31:00,
2013-02-26 08:41:00,52.0,6.0,-100.00,ESE,117,4.0,9.0,15,-99.99,,,-99.99,,2013-02-26 16:41:00,
2013-02-26 08:51:00,53.0,7.0,-100.00,SW,224,2.0,4.0,15,-99.99,,,-99.99,,2013-02-26 16:51:00,
2013-02-26 09:01:00,53.0,7.0,-100.00,ESE,112,3.0,11.0,15,-99.99,,,-99.99,,2013-02-26 17:01:00,
2013-02-26 09:11:00,54.0,7.0,-100.00,ESE,102,7.0,12.0,15,-99.99,,,-99.99,,2013-02-26 17:11:00,
2013-02-26 09:21:00,55.0,8.0,-100.00,East,94,6.0,12.0,15,-99.99,,,-99.99,,2013-02-26 17:21:00,
2013-02-26 09:32:00,56.0,7.0,-100.00,East,94,5.0,13.0,14,-99.99,,,-99.99,,2013-02-26 17:32:00,
2013-02-26 09:41:00,57.0,8.0,-100.00,East,99,5.0,10.0,14,-99.99,,,-99.99,,2013-02-26 17:41:00,
2013-02-26 09:52:00,57.0,8.0,-100.00,ENE,70,5.0,11.0,14,-99.99,,,-99.99,,2013-02-26 17:52:00,
2013-02-26 10:01:00,57.0,8.0,-100.00,East,81,5.0,11.0,14,-99.99,,,-99.99,,2013-02-26 18:01:00,
2013-02-26 10:12:00,57.0,10.0,-100.00,East,88,6.0,12.0,15,-99.99,,,-99.99,,2013-02-26 18:12:00,
2013-02-26 10:21:00,57.0,10.0,-100.00,East,88,6.0,12.0,15,-99.99,,,-99.99,,2013-02-26 18:21:00,
2013-02-26 10:32:00,57.0,10.0,-100.00,East,95,6.0,13.0,15,-99.99,,,-99.99,,2013-02-26 18:32:00,
2013-02-26 10:42:00,58.0,11.0,-100.00,East,91,6.0,13.0,15,-99.99,,,-99.99,,2013-02-26 18:42:00,
2013-02-26 10:52:00,57.0,10.0,-100.00,East,101,7.0,15.0,15,-99.99,,,-99.99,,2013-02-26 18:52:00,
2013-02-26 11:01:00,57.0,10.0,-100.00,East,101,7.0,15.0,15,-99.99,,,-99.99,,2013-02-26 19:01:00,
2013-02-26 11:11:00,57.0,11.0,-100.00,East,101,8.0,20.0,16,-99.99,,,-99.99,,2013-02-26 19:11:00,
2013-02-26 11:22:00,56.0,10.0,-100.00,East,99,9.0,17.0,16,-99.99,,,-99.99,,2013-02-26 19:22:00,
2013-02-26 11:31:00,56.0,10.0,-100.00,East,95,10.0,20.0,16,-99.99,,,-99.99,,2013-02-26 19:31:00,
2013-02-26 11:41:00,56.0,10.0,-100.00,East,99,9.0,17.0,16,-99.99,,,-99.99,,2013-02-26 19:41:00,
2013-02-26 11:50:00,56.0,7.0,-100.00,East,98,10.0,24.0,14,-99.99,,,-99.99,,2013-02-26 19:50:00,
2013-02-26 11:51:00,56.0,9.0,-100.00,East,95,11.0,18.0,15,-99.99,,,-99.99,,2013-02-26 19:51:00,
2013-02-26 12:01:00,56.0,9.0,-100.00,ESE,102,11.0,19.0,15,-99.99,,,-99.99,,2013-02-26 20:01:00,
2013-02-26 12:11:00,56.0,9.0,-100.00,East,93,7.0,19.0,15,-99.99,,,-99.99,,2013-02-26 20:11:00,
2013-02-26 12:21:00,56.0,7.0,-100.00,East,98,10.0,24.0,14,-99.99,,,-99.99,,2013-02-26 20:21:00,
2013-02-26 12:31:00,56.0,7.0,-100.00,East,98,10.0,24.0,14,-99.99,,,-99.99,,2013-02-26 20:31:00,
2013-02-26 12:41:00,56.0,7.0,-100.00,East,98,10.0,24.0,14,-99.99,,,-99.99,,2013-02-26 20:41:00,
2013-02-26 14:01:00,57.0,10.0,-100.00,East,93,10.0,19.0,15,-99.99,,,-99.99,,2013-02-26 22:01:00,
2013-02-26 14:11:00,56.0,9.0,-100.00,East,96,10.0,17.0,15,-99.99,,,-99.99,,2013-02-26 22:11:00,
2013-02-26 14:21:00,57.0,10.0,-100.00,East,95,8.0,18.0,15,-99.99,,,-99.99,,2013-02-26 22:21:00,
2013-02-26 14:31:00,57.0,10.0,-100.00,East,88,9.0,20.0,15,-99.99,,,-99.99,,2013-02-26 22:31:00,
2013-02-26 14:41:00,57.0,10.0,-100.00,East,93,8.0,17.0,15,-99.99,,,-99.99,,2013-02-26 22:41:00,
2013-02-26 14:51:00,57.0,10.0,-100.00,East,89,7.0,14.0,15,-99.99,,,-99.99,,2013-02-26 22:51:00,
2013-02-26 15:01:00,57.0,10.0,-100.00,East,92,5.0,15.0,15,-99.99,,,-99.99,,2013-02-26 23:01:00,
2013-02-26 15:11:00,57.0,10.0,-100.00,East,90,8.0,19.0,15,-99.99,,,-99.99,,2013-02-26 23:11:00,
2013-02-26 15:21:00,56.0,9.0,-100.00,East,89,8.0,18.0,15,-99.99,,,-99.99,,2013-02-26 23:21:00,
2013-02-26 15:31:00,56.0,9.0,-100.00,East,89,8.0,18.0,15,-99.99,,,-99.99,,2013-02-26 23:31:00,
2013-02-26 15:41:00,56.0,10.0,-100.00,East,83,6.0,17.0,16,-99.99,,,-99.99,,2013-02-26 23:41:00,
2013-02-26 15:52:00,56.0,9.0,-100.00,East,95,7.0,15.0,15,-99.99,,,-99.99,,2013-02-26 23:52:00,
2013-02-26 16:01:00,56.0,9.0,-100.00,East,95,7.0,15.0,15,-99.99,,,-99.99,,2013-02-27 00:01:00,
2013-02-26 16:11:00,56.0,9.0,-100.00,East,92,7.0,15.0,15,-99.99,,,-99.99,,2013-02-27 00:11:00,
2013-02-26 16:21:00,56.0,10.0,-100.00,East,89,4.0,9.0,16,-99.99,,,-99.99,,2013-02-27 00:21:00,
2013-02-26 16:31:00,56.0,10.0,-100.00,ENE,71,4.0,12.0,16,-99.99,,,-99.99,,2013-02-27 00:31:00,
2013-02-26 16:41:00,55.0,8.0,-100.00,ENE,70,6.0,13.0,15,-99.99,,,-99.99,,2013-02-27 00:41:00,
2013-02-26 16:51:00,54.0,9.0,-100.00,East,80,6.0,13.0,16,-99.99,,,-99.99,,2013-02-27 00:51:00,
2013-02-26 17:01:00,54.0,9.0,-100.00,ESE,102,6.0,11.0,16,-99.99,,,-99.99,,2013-02-27 01:01:00,
2013-02-26 17:11:00,54.0,9.0,-100.00,East,96,5.0,15.0,16,-99.99,,,-99.99,,2013-02-27 01:11:00,
2013-02-26 17:21:00,53.0,8.0,-100.00,East,91,6.0,13.0,16,-99.99,,,-99.99,,2013-02-27 01:21:00,
2013-02-26 17:31:00,53.0,9.0,-100.00,East,83,5.0,14.0,17,-99.99,,,-99.99,,2013-02-27 01:31:00,
2013-02-26 17:41:00,52.0,10.0,-100.00,ENE,68,4.0,11.0,18,-99.99,,,-99.99,,2013-02-27 01:41:00,
2013-02-26 17:51:00,52.0,11.0,-100.00,East,96,3.0,7.0,19,-99.99,,,-99.99,,2013-02-27 01:51:00,
2013-02-26 18:01:00,51.0,11.0,-100.00,East,94,2.0,5.0,20,-99.99,,,-99.99,,2013-02-27 02:01:00,
2013-02-26 18:13:00,50.0,11.0,-100.00,East,98,2.0,6.0,20,-99.99,,,-99.99,,2013-02-27 02:13:00,
2013-02-26 18:22:00,49.0,11.0,-100.00,East,89,2.0,7.0,21,-99.99,,,-99.99,,2013-02-27 02:22:00,
2013-02-26 18:31:00,48.0,11.0,-100.00,East,92,1.0,3.0,22,-99.99,,,-99.99,,2013-02-27 02:31:00,
2013-02-26 18:41:00,48.0,11.0,-100.00,East,96,1.0,3.0,22,-99.99,,,-99.99,,2013-02-27 02:41:00,
2013-02-26 18:52:00,48.0,10.0,-100.00,East,97,1.0,3.0,21,-99.99,,,-99.99,,2013-02-27 02:52:00,
2013-02-26 19:01:00,47.0,9.0,-100.00,East,79,2.0,4.0,21,-99.99,,,-99.99,,2013-02-27 03:01:00,
2013-02-26 19:11:00,47.0,9.0,-100.00,East,88,3.0,6.0,21,-99.99,,,-99.99,,2013-02-27 03:11:00,
2013-02-26 19:21:00,47.0,9.0,-100.00,East,99,5.0,8.0,21,-99.99,,,-99.99,,2013-02-27 03:21:00,
2013-02-26 19:31:00,47.0,9.0,-100.00,East,83,3.0,4.0,21,-99.99,,,-99.99,,2013-02-27 03:31:00,
2013-02-26 19:41:00,47.0,9.0,-100.00,East,98,4.0,7.0,21,-99.99,,,-99.99,,2013-02-27 03:41:00,
2013-02-26 19:51:00,47.0,10.0,-100.00,East,91,3.0,5.0,22,-99.99,,,-99.99,,2013-02-27 03:51:00,
2013-02-26 20:01:00,47.0,8.0,-100.00,East,97,4.0,7.0,20,-99.99,,,-99.99,,2013-02-27 04:01:00,
2013-02-26 20:11:00,47.0,8.0,-100.00,ESE,106,2.0,5.0,20,-99.99,,,-99.99,,2013-02-27 04:11:00,
2013-02-26 20:21:00,48.0,8.0,-100.00,ESE,110,3.0,6.0,19,-99.99,,,-99.99,,2013-02-27 04:21:00,
2013-02-26 20:31:00,47.0,7.0,-100.00,ESE,113,3.0,9.0,19,-99.99,,,-99.99,,2013-02-27 04:31:00,
2013-02-26 20:41:00,48.0,7.0,-100.00,ESE,120,3.0,8.0,18,-99.99,,,-99.99,,2013-02-27 04:41:00,
2013-02-26 20:51:00,47.0,7.0,-100.00,ESE,116,3.0,7.0,19,-99.99,,,-99.99,,2013-02-27 04:51:00,
2013-02-26 21:01:00,48.0,7.0,-100.00,SE,125,3.0,5.0,18,-99.99,,,-99.99,,2013-02-27 05:01:00,
2013-02-26 21:11:00,47.0,6.0,-100.00,ESE,120,3.0,7.0,18,-99.99,,,-99.99,,2013-02-27 05:11:00,
2013-02-26 21:22:00,47.0,6.0,-100.00,ESE,114,2.0,4.0,18,-99.99,,,-99.99,,2013-02-27 05:22:00,
2013-02-26 21:32:00,47.0,4.0,-100.00,East,101,2.0,5.0,17,-99.99,,,-99.99,,2013-02-27 05:32:00,
2013-02-26 21:41:00,48.0,4.0,-100.00,SSW,197,3.0,7.0,16,-99.99,,,-99.99,,2013-02-27 05:41:00,
2013-02-26 21:52:00,48.0,5.0,-100.00,ENE,73,3.0,8.0,17,-99.99,,,-99.99,,2013-02-27 05:52:00,
2013-02-26 22:02:00,48.0,5.0,-100.00,ENE,73,3.0,8.0,17,-99.99,,,-99.99,,2013-02-27 06:02:00,
2013-02-26 22:11:00,48.0,4.0,-100.00,East,82,3.0,10.0,16,-99.99,,,-99.99,,2013-02-27 06:11:00,
2013-02-26 22:21:00,48.0,4.0,-100.00,ESE,122,4.0,8.0,16,-99.99,,,-99.99,,2013-02-27 06:21:00,
2013-02-26 22:32:00,47.0,4.0,-100.00,ESE,122,4.0,6.0,17,-99.99,,,-99.99,,2013-02-27 06:32:00,
2013-02-26 22:41:00,47.0,3.0,-100.00,South,171,5.0,12.0,16,-99.99,,,-99.99,,2013-02-27 06:41:00,
2013-02-26 22:51:00,48.0,4.0,-100.00,ESE,123,6.0,10.0,16,-99.99,,,-99.99,,2013-02-27 06:51:00,
2013-02-26 23:01:00,48.0,4.0,-100.00,ESE,108,4.0,9.0,16,-99.99,,,-99.99,,2013-02-27 07:01:00,
2013-02-26 23:11:00,48.0,5.0,-100.00,ESE,107,6.0,11.0,17,-99.99,,,-99.99,,2013-02-27 07:11:00,
2013-02-26 23:21:00,47.0,7.0,-100.00,SE,126,4.0,6.0,19,-99.99,,,-99.99,,2013-02-27 07:21:00,
2013-02-26 23:31:00,46.0,7.0,-100.00,ESE,102,3.0,6.0,20,-99.99,,,-99.99,,2013-02-27 07:31:00,
2013-02-26 23:41:00,46.0,7.0,-100.00,ESE,116,4.0,6.0,20,-99.99,,,-99.99,,2013-02-27 07:41:00,
2013-02-26 23:51:00,45.0,6.0,-100.00,ESE,102,2.0,8.0,20,-99.99,,,-99.99,,2013-02-27 07:51:00,